PST,Max TemperatureF,Mean TemperatureF,Min TemperatureF,Max Dew PointF,MeanDew PointF,Min DewpointF,Max Humidity, Mean Humidity, Min Humidity, Max Sea Level PressureIn, Mean Sea Level PressureIn, Min Sea Level PressureIn, Max VisibilityMiles, Mean VisibilityMiles, Min VisibilityMiles, Max Wind SpeedMPH, Mean Wind SpeedMPH, Max Gust SpeedMPH,PrecipitationIn, CloudCover, Events, WindDirDegrees
2012-12-1,70,66,61,61,59,57,90,78,66,30.18,30.12,30.08,10,7,2,7,1,12,0.00,8,Rain,219
2012-12-2,69,66,63,61,59,57,84,76,68,30.14,30.10,30.06,10,6,2,9,0,13,0.02,8,Rain,191
2012-12-3,72,68,63,63,60,57,93,81,68,30.19,30.13,30.09,10,5,1,9,4,14,0.51,7,Rain,122
2012-12-4,72,67,62,58,56,52,84,71,57,30.24,30.17,30.13,8,5,3,8,2,15,0.00,3,,315
2012-12-5,68,61,53,57,53,50,93,81,68,30.14,30.08,30.01,8,3,0,6,0,,0.01,6,Fog,126
2012-12-6,71,66,61,57,54,53,84,69,53,30.01,29.94,29.87,8,6,4,8,2,10,0.00,6,,69
2012-12-7,69,63,57,56,54,51,93,77,61,29.98,29.93,29.90,3,2,0,6,1,13,0.01,4,Fog,110
2012-12-8,69,61,53,55,53,49,93,76,59,29.99,29.94,29.89,4,2,0,7,2,18,0.00,5,Fog,116
2012-12-9,70,64,58,54,52,49,78,66,53,30.12,30.03,29.97,4,3,2,7,1,10,0.00,4,,134
2012-12-10,79,64,48,48,44,33,86,53,19,30.13,30.09,30.02,10,5,2,8,1,16,0.00,0,,303
2012-12-11,72,61,49,55,47,39,74,55,35,30.05,30.00,29.94,10,8,5,8,2,,0.00,3,,121
2012-12-12,65,61,56,54,51,47,80,66,52,29.96,29.90,29.84,10,8,2,9,3,20,0.00,8,Rain,125
2012-12-13,65,61,57,54,50,42,86,65,43,29.83,29.79,29.72,10,8,2,9,2,24,0.24,6,Rain,194
2012-12-14,62,53,44,44,41,35,83,62,40,30.01,29.89,29.76,10,10,10,13,3,20,0.00,4,Rain,112
2012-12-15,65,57,48,44,40,31,80,54,28,30.09,30.02,29.98,10,10,10,8,3,24,0.01,4,Rain,308
2012-12-16,59,58,56,52,48,42,80,69,57,30.18,30.13,30.09,10,9,3,9,2,13,0.01,8,Rain,87
2012-12-17,68,62,56,53,51,48,80,66,52,30.17,30.09,30.00,10,9,7,8,2,16,0.00,8,,92
2012-12-18,65,61,57,55,48,21,86,63,40,30.01,29.90,29.79,10,8,2,15,4,25,0.17,6,Rain,254
2012-12-19,64,52,40,26,20,9,59,35,11,30.26,30.17,30.02,10,10,10,15,5,22,0.00,0,,63
2012-12-20,72,60,48,34,18,6,22,17,11,30.22,30.13,30.06,10,10,10,14,6,18,0.00,0,,59
2012-12-21,68,54,39,44,34,24,64,42,19,30.13,30.07,30.04,10,10,10,7,1,9,0.00,0,,169
2012-12-22,65,54,43,52,44,37,82,61,40,30.20,30.14,30.07,10,10,7,8,2,20,0.00,4,Rain,175
2012-12-23,64,59,54,52,50,48,86,71,56,30.22,30.17,30.12,10,10,8,9,2,16,T,7,,142
2012-12-24,67,61,55,55,53,48,86,77,67,30.12,30.06,29.98,10,8,2,12,5,14,0.55,6,Rain,82
2012-12-25,66,59,52,52,47,37,89,63,37,30.09,30.05,29.98,10,8,4,7,2,,0.00,3,,96
2012-12-26,65,58,50,52,48,42,89,67,44,30.01,29.95,29.90,10,8,2,12,5,18,0.10,5,Rain,199
2012-12-27,66,55,43,43,38,29,89,57,24,30.10,30.00,29.94,10,10,10,12,2,17,0.00,0,,56
2012-12-28,66,54,42,38,34,28,76,51,26,30.17,30.11,30.07,10,10,10,8,1,14,0.00,0,,114
2012-12-29,56,50,44,45,40,31,76,67,58,30.08,30.03,29.97,10,9,3,12,4,18,0.18,5,Rain,80
2012-12-30,59,49,39,43,39,35,92,72,51,30.07,29.98,29.91,10,8,5,10,1,26,0.01,2,Rain,65
2012-12-31,62,50,37,42,37,29,85,58,31,30.25,30.18,30.08,10,10,10,9,2,12,0.00,0,,113